When you browse on this site, cookies collect data to enhance your experience and personalize the content and advertising you see.
Visit our Privacy Policy to learn more. By continuing to use the site, you agree to this use of cookies and data.
  • In Austria
  • List of Countries
  • For 7 days
  • Water Temperature
  • Satellite Maps
  • Weather Map
  • News
  • Weather Widgets
  • user-avatar
    Login

    Hourly Weather Blotnica

    Today, 11 December, Tuesday

    Time Temperature Precipitation Wind Pressure Humidity
    00:00 +2°C° 0.6 mm 7 mps 751 mmHg 81%
    01:00 +2°C° 0.6 mm 7 mps 751 mmHg 81%
    02:00 +2°C° 0.4 mm 6 mps 751 mmHg 81%
    03:00 +2°C° 0.4 mm 6 mps 752 mmHg 81%
    04:00 +2°C° 0.4 mm 5 mps 752 mmHg 81%
    05:00 +2°C° 0.2 mm 6 mps 752 mmHg 82%
    06:00 +2°C° 0.2 mm 6 mps 753 mmHg 82%
    07:00 +1°C° 0.2 mm 6 mps 753 mmHg 82%
    08:00 +2°C° 0.2 mm 6 mps 754 mmHg 82%
    09:00 +2°C° 0.2 mm 7 mps 755 mmHg 81%
    10:00 +2°C° 0.2 mm 7 mps 755 mmHg 81%
    11:00 +2°C° 0.3 mm 7 mps 756 mmHg 79%
    12:00 +2°C° 0.3 mm 7 mps 756 mmHg 78%
    13:00 +2°C° 0.3 mm 8 mps 757 mmHg 77%
    14:00 +2°C° 0.2 mm 7 mps 757 mmHg 78%
    15:00 +2°C° 0.2 mm 7 mps 758 mmHg 79%
    16:00 +2°C° 0.2 mm 7 mps 759 mmHg 80%
    17:00 +2°C° 0.2 mm 7 mps 759 mmHg 81%
    18:00 +2°C° 0.2 mm 6 mps 759 mmHg 82%
    19:00 +2°C° 0.2 mm 6 mps 760 mmHg 83%
    20:00 +1°C° 0.1 mm 5 mps 760 mmHg 85%
    21:00 +1°C° 0.1 mm 5 mps 761 mmHg 86%
    22:00 +1°C° 0.1 mm 5 mps 762 mmHg 88%
    23:00 +1°C° 0 mm 4 mps 762 mmHg 88%

    Tomorrow, 12 December, Wednesday

    Time Temperature Precipitation Wind Pressure Humidity
    00:00 0°C° 0 mm 4 mps 763 mmHg 89%
    01:00 0°C° 0 mm 4 mps 763 mmHg 89%
    02:00 +1°C° 0 mm 3 mps 763 mmHg 89%
    03:00 +1°C° 0 mm 3 mps 764 mmHg 89%
    04:00 0°C° 0 mm 3 mps 764 mmHg 90%
    05:00 0°C° 0 mm 3 mps 764 mmHg 90%
    06:00 0°C° 0 mm 3 mps 765 mmHg 90%
    07:00 0°C° 0 mm 3 mps 765 mmHg 89%
    08:00 +1°C° 0.1 mm 3 mps 765 mmHg 88%
    09:00 +1°C° 0.1 mm 3 mps 766 mmHg 87%
    10:00 +2°C° 0.1 mm 3 mps 766 mmHg 85%
    11:00 +2°C° 0.2 mm 3 mps 766 mmHg 83%
    12:00 +3°C° 0.2 mm 3 mps 766 mmHg 80%
    13:00 +3°C° 0.2 mm 4 mps 766 mmHg 78%
    14:00 +3°C° 0.2 mm 4 mps 766 mmHg 81%
    15:00 +1°C° 0.2 mm 4 mps 767 mmHg 84%
    16:00 +1°C° 0.2 mm 4 mps 767 mmHg 86%
    17:00 +1°C° 0.2 mm 4 mps 767 mmHg 87%
    18:00 0°C° 0.2 mm 4 mps 767 mmHg 88%
    19:00 0°C° 0.2 mm 4 mps 767 mmHg 89%
    20:00 0°C° 0.1 mm 4 mps 767 mmHg 89%
    21:00 0°C° 0.1 mm 4 mps 767 mmHg 89%
    22:00 0°C° 0.1 mm 4 mps 767 mmHg 90%
    23:00 0°C° 0.1 mm 4 mps 767 mmHg 90%

    Day after tomorrow, 13 December, Thursday

    Time Temperature Precipitation Wind Pressure Humidity
    00:00 0°C° 0.1 mm 4 mps 767 mmHg 90%
    01:00 0°C° 0.1 mm 4 mps 768 mmHg 91%
    02:00 -1°C° 0.1 mm 4 mps 767 mmHg 91%
    03:00 -1°C° 0.1 mm 4 mps 767 mmHg 92%
    04:00 0°C° 0.1 mm 3 mps 767 mmHg 92%
    05:00 -1°C° 0 mm 4 mps 767 mmHg 92%
    06:00 -1°C° 0 mm 4 mps 767 mmHg 91%
    07:00 -1°C° 0 mm 4 mps 767 mmHg 91%
    08:00 -1°C° 0.1 mm 4 mps 767 mmHg 89%
    09:00 -1°C° 0.1 mm 4 mps 767 mmHg 88%
    10:00 0°C° 0.1 mm 4 mps 767 mmHg 86%
    11:00 0°C° 0.1 mm 4 mps 767 mmHg 84%
    12:00 +1°C° 0.1 mm 4 mps 767 mmHg 81%
    13:00 +1°C° 0.1 mm 4 mps 767 mmHg 79%
    14:00 +1°C° 0.1 mm 4 mps 767 mmHg 81%
    15:00 0°C° 0.1 mm 4 mps 767 mmHg 82%
    16:00 0°C° 0.1 mm 4 mps 767 mmHg 84%
    17:00 0°C° 0.1 mm 4 mps 767 mmHg 84%
    18:00 0°C° 0.1 mm 4 mps 767 mmHg 84%
    19:00 0°C° 0.1 mm 4 mps 767 mmHg 85%
    20:00 -1°C° 0.1 mm 4 mps 767 mmHg 86%
    21:00 0°C° 0.1 mm 3 mps 768 mmHg 87%
    22:00 0°C° 0.1 mm 3 mps 768 mmHg 88%
    23:00 -1°C° 0 mm 3 mps 768 mmHg 88%

    14 December, Friday

    Time Temperature Precipitation Wind Pressure Humidity
    00:00 -1°C° 0 mm 2 mps 768 mmHg 87%
    01:00 -1°C° 0 mm 2 mps 768 mmHg 87%
    02:00 -1°C° 0 mm 2 mps 768 mmHg 87%
    03:00 -1°C° 0 mm 2 mps 768 mmHg 87%
    04:00 -1°C° 0 mm 2 mps 768 mmHg 86%
    05:00 -2°C° 0 mm 2 mps 768 mmHg 86%
    06:00 -2°C° 0 mm 2 mps 769 mmHg 86%
    07:00 -2°C° 0 mm 2 mps 769 mmHg 86%
    08:00 -2°C° 0 mm 2 mps 769 mmHg 84%
    09:00 -1°C° 0 mm 2 mps 769 mmHg 81%
    10:00 -1°C° 0 mm 2 mps 770 mmHg 78%
    11:00 -1°C° 0 mm 2 mps 770 mmHg 76%
    12:00 +1°C° 0 mm 2 mps 770 mmHg 74%
    13:00 0°C° 0 mm 3 mps 770 mmHg 72%
    14:00 0°C° 0 mm 3 mps 770 mmHg 75%
    15:00 -1°C° 0 mm 3 mps 770 mmHg 79%
    16:00 -1°C° 0 mm 3 mps 770 mmHg 82%
    17:00 -1°C° 0 mm 3 mps 771 mmHg 83%
    18:00 -1°C° 0 mm 3 mps 771 mmHg 83%
    19:00 -1°C° 0 mm 3 mps 771 mmHg 84%
    20:00 -1°C° 0 mm 3 mps 771 mmHg 85%
    21:00 -1°C° 0 mm 3 mps 772 mmHg 85%
    22:00 -1°C° 0 mm 3 mps 772 mmHg 85%
    23:00 -1°C° 0.1 mm 3 mps 772 mmHg 86%

    15 December, Saturday

    Time Temperature Precipitation Wind Pressure Humidity
    00:00 -1°C° 0.1 mm 3 mps 772 mmHg 86%
    01:00 -1°C° 0.1 mm 3 mps 772 mmHg 87%
    02:00 -1°C° 0.1 mm 3 mps 772 mmHg 88%
    03:00 -1°C° 0.1 mm 3 mps 772 mmHg 88%
    04:00 -1°C° 0.1 mm 2 mps 772 mmHg 89%
    05:00 -1°C° 0 mm 3 mps 772 mmHg 89%
    06:00 -1°C° 0 mm 3 mps 772 mmHg 89%
    07:00 -1°C° 0 mm 3 mps 773 mmHg 90%
    08:00 -1°C° 0 mm 3 mps 773 mmHg 88%
    09:00 -1°C° 0 mm 3 mps 773 mmHg 86%
    10:00 -2°C° 0 mm 4 mps 773 mmHg 85%
    11:00 -1°C° 0 mm 4 mps 773 mmHg 83%
    12:00 -1°C° 0 mm 4 mps 773 mmHg 81%
    13:00 0°C° 0 mm 4 mps 773 mmHg 79%
    14:00 -1°C° 0 mm 4 mps 773 mmHg 81%
    15:00 -1°C° 0 mm 4 mps 773 mmHg 83%
    16:00 -2°C° 0 mm 4 mps 773 mmHg 85%
    17:00 -2°C° 0 mm 4 mps 773 mmHg 86%
    18:00 -2°C° 0 mm 4 mps 773 mmHg 87%
    19:00 -4°C° 0 mm 5 mps 773 mmHg 87%
    20:00 -4°C° 0 mm 5 mps 773 mmHg 86%
    21:00 -4°C° 0 mm 5 mps 773 mmHg 85%
    22:00 -4°C° 0 mm 5 mps 773 mmHg 84%
    23:00 -4°C° 0 mm 5 mps 773 mmHg 83%

    16 December, Sunday

    Time Temperature Precipitation Wind Pressure Humidity
    00:00 -4°C° 0 mm 6 mps 772 mmHg 82%
    01:00 -4°C° 0 mm 6 mps 772 mmHg 81%
    02:00 -4°C° 0 mm 6 mps 772 mmHg 81%
    03:00 -4°C° 0 mm 6 mps 771 mmHg 81%
    04:00 -4°C° 0 mm 6 mps 771 mmHg 80%
    05:00 -4°C° 0 mm 6 mps 771 mmHg 81%
    06:00 -4°C° 0 mm 7 mps 770 mmHg 81%
    07:00 -4°C° 0 mm 7 mps 770 mmHg 82%
    08:00 -4°C° 0 mm 7 mps 770 mmHg 81%
    09:00 -5°C° 0 mm 8 mps 770 mmHg 79%
    10:00 -5°C° 0 mm 8 mps 770 mmHg 78%
    11:00 -5°C° 0 mm 8 mps 769 mmHg 76%
    12:00 -4°C° 0 mm 8 mps 769 mmHg 73%
    13:00 -4°C° 0 mm 8 mps 768 mmHg 71%
    14:00 -4°C° 0 mm 8 mps 768 mmHg 72%
    15:00 -4°C° 0 mm 8 mps 768 mmHg 72%
    16:00 -4°C° 0 mm 8 mps 767 mmHg 73%
    17:00 -4°C° 0 mm 8 mps 767 mmHg 73%
    18:00 -4°C° 0 mm 8 mps 767 mmHg 74%
    19:00 -4°C° 0 mm 8 mps 767 mmHg 74%
    20:00 -3°C° 0 mm 7 mps 767 mmHg 76%
    21:00 -3°C° 0 mm 7 mps 767 mmHg 77%
    22:00 -3°C° 0 mm 7 mps 767 mmHg 78%
    23:00 -3°C° 0.1 mm 6 mps 767 mmHg 81%
    Show more